Time,TemperatureF,DewpointF,PressureIn,WindDirection,WindDirectionDegrees,WindSpeedMPH,WindSpeedGustMPH,Humidity,HourlyPrecipIn,Conditions,Clouds,dailyrainin,SoftwareType,DateUTC
2013-03-03 00:00:00,40.6,33.6,29.88,NW,317,1.0,2.0,76,0.00,,OVC085,0.00,VWS V14.01,2013-03-03 05:00:00,
2013-03-03 00:08:00,40.2,33.2,29.89,WNW,298,0.0,5.0,76,0.00,,BKN090,0.00,VWS V14.01,2013-03-03 05:08:00,
2013-03-03 00:13:00,40.0,33.1,29.88,NW,309,0.0,5.0,76,0.00,,BKN090,0.00,VWS V14.01,2013-03-03 05:13:00,
2013-03-03 00:15:00,39.6,33.3,29.89,NW,315,0.0,0.0,78,0.00,,SCT070,0.00,VWS V14.01,2013-03-03 05:15:00,
2013-03-03 00:18:00,39.9,33.0,29.89,NW,309,0.0,1.0,76,0.00,,BKN090,0.00,VWS V14.01,2013-03-03 05:18:00,
2013-03-03 00:28:00,39.6,33.0,29.89,NW,316,0.0,2.0,77,0.00,,BKN090,0.00,VWS V14.01,2013-03-03 05:28:00,
2013-03-03 00:30:00,39.5,32.9,29.89,NW,316,0.0,2.0,77,0.00,,BKN090,0.00,VWS V14.01,2013-03-03 05:30:00,
2013-03-03 00:38:00,39.5,32.9,29.89,NW,316,0.0,2.0,77,0.00,,BKN090,0.00,VWS V14.01,2013-03-03 05:38:00,
2013-03-03 00:43:00,39.5,33.2,29.89,NW,315,0.0,2.0,78,0.00,,BKN090,0.00,VWS V14.01,2013-03-03 05:43:00,
2013-03-03 00:45:00,39.8,33.8,29.89,NW,317,0.0,0.0,79,0.00,,SCT070,0.00,VWS V14.01,2013-03-03 05:45:00,
2013-03-03 00:48:00,39.4,33.1,29.89,NW,315,0.0,0.0,78,0.00,,BKN090,0.00,VWS V14.01,2013-03-03 05:48:00,
2013-03-03 00:57:00,39.5,33.2,29.89,NW,316,0.0,0.0,78,0.00,,BKN090,0.00,VWS V14.01,2013-03-03 05:57:00,
2013-03-03 01:00:00,39.8,34.1,29.89,NW,317,0.0,0.0,80,0.00,,SCT070,0.00,VWS V14.01,2013-03-03 06:00:00,
2013-03-03 01:02:00,39.5,33.2,29.89,NW,316,0.0,0.0,78,0.00,,OVC085,0.00,VWS V14.01,2013-03-03 06:02:00,
2013-03-03 01:12:00,39.5,33.2,29.89,NW,315,0.0,0.0,78,0.00,,OVC085,0.00,VWS V14.01,2013-03-03 06:12:00,
2013-03-03 01:15:00,39.8,34.8,29.89,NW,317,0.0,0.0,82,0.00,,SCT070,0.00,VWS V14.01,2013-03-03 06:15:00,
2013-03-03 01:17:00,39.6,33.3,29.89,NW,315,0.0,0.0,78,0.00,,OVC085,0.00,VWS V14.01,2013-03-03 06:17:00,
2013-03-03 01:27:00,39.7,33.4,29.90,NW,317,0.0,2.0,78,0.00,,OVC085,0.00,VWS V14.01,2013-03-03 06:27:00,
2013-03-03 01:30:00,39.8,35.4,29.88,NW,317,0.0,0.0,84,0.00,,SCT070,0.00,VWS V14.01,2013-03-03 06:30:00,
2013-03-03 01:32:00,39.7,33.4,29.89,NW,317,0.0,0.0,78,0.00,,OVC085,0.00,VWS V14.01,2013-03-03 06:32:00,
2013-03-03 01:42:00,39.8,33.8,29.89,NW,317,0.0,0.0,79,0.00,,OVC085,0.00,VWS V14.01,2013-03-03 06:42:00,
2013-03-03 01:45:00,39.6,35.2,29.88,NW,317,0.0,0.0,84,0.00,,SCT070,0.00,VWS V14.01,2013-03-03 06:45:00,
2013-03-03 01:47:00,39.8,33.8,29.89,NW,317,0.0,0.0,79,0.00,,OVC085,0.00,VWS V14.01,2013-03-03 06:47:00,
2013-03-03 01:57:00,39.8,34.1,29.89,NW,317,0.0,0.0,80,0.00,,OVC085,0.00,VWS V14.01,2013-03-03 06:57:00,
2013-03-03 02:00:00,39.1,34.7,29.88,NW,317,0.0,1.0,84,0.00,,SCT070,0.00,VWS V14.01,2013-03-03 07:00:00,
2013-03-03 02:02:00,39.8,34.5,29.89,NW,317,0.0,0.0,81,0.00,,OVC035,0.00,VWS V14.01,2013-03-03 07:02:00,
2013-03-03 02:12:00,39.8,34.8,29.89,NW,317,0.0,0.0,82,0.00,,OVC035,0.00,VWS V14.01,2013-03-03 07:12:00,
2013-03-03 02:15:00,38.8,34.1,29.88,NW,317,0.0,2.0,83,0.00,,SCT070,0.00,VWS V14.01,2013-03-03 07:15:00,
2013-03-03 02:17:00,39.8,35.1,29.89,NW,317,0.0,0.0,83,0.00,,OVC035,0.00,VWS V14.01,2013-03-03 07:17:00,
2013-03-03 02:27:00,39.8,35.1,29.88,NW,317,0.0,0.0,83,0.00,,OVC035,0.00,VWS V14.01,2013-03-03 07:27:00,
2013-03-03 02:30:00,38.7,33.4,29.88,WSW,248,0.0,2.0,81,0.00,,SCT070,0.00,VWS V14.01,2013-03-03 07:30:00,
2013-03-03 02:32:00,39.8,35.4,29.88,NW,317,0.0,0.0,84,0.00,,OVC035,0.00,VWS V14.01,2013-03-03 07:32:00,
2013-03-03 02:42:00,39.6,35.2,29.88,NW,317,0.0,0.0,84,0.00,,OVC035,0.00,VWS V14.01,2013-03-03 07:42:00,
2013-03-03 02:45:00,38.7,33.1,29.88,NW,309,0.0,2.0,80,0.00,,SCT070,0.00,VWS V14.01,2013-03-03 07:45:00,
2013-03-03 02:47:00,39.5,35.1,29.88,NW,317,0.0,0.0,84,0.00,,OVC035,0.00,VWS V14.01,2013-03-03 07:47:00,
2013-03-03 02:57:00,39.2,34.8,29.88,NW,317,0.0,1.0,84,0.00,,OVC035,0.00,VWS V14.01,2013-03-03 07:57:00,
2013-03-03 03:00:00,38.4,32.5,29.88,NW,309,1.0,2.0,79,0.00,,SCT070,0.00,VWS V14.01,2013-03-03 08:00:00,
2013-03-03 03:02:00,39.1,34.7,29.88,NW,317,0.0,0.0,84,0.00,,BKN040,0.00,VWS V14.01,2013-03-03 08:02:00,
2013-03-03 03:12:00,38.8,34.1,29.88,NW,317,0.0,2.0,83,0.00,,BKN040,0.00,VWS V14.01,2013-03-03 08:12:00,
2013-03-03 03:15:00,38.0,31.4,29.89,NW,317,0.0,5.0,77,0.00,,SCT070,0.00,VWS V14.01,2013-03-03 08:15:00,
2013-03-03 03:17:00,38.8,34.1,29.88,NW,317,0.0,1.0,83,0.00,,BKN040,0.00,VWS V14.01,2013-03-03 08:17:00,
2013-03-03 03:27:00,38.7,33.7,29.88,WSW,248,0.0,2.0,82,0.00,,BKN040,0.00,VWS V14.01,2013-03-03 08:27:00,
2013-03-03 03:30:00,38.0,30.8,29.89,North,355,0.0,4.0,75,0.00,,SCT070,0.00,VWS V14.01,2013-03-03 08:30:00,
2013-03-03 03:32:00,38.8,33.5,29.88,WSW,248,0.0,1.0,81,0.00,,BKN040,0.00,VWS V14.01,2013-03-03 08:32:00,
2013-03-03 03:37:00,38.8,33.5,29.88,NW,309,0.0,2.0,81,0.00,,BKN040,0.00,VWS V14.01,2013-03-03 08:37:00,
2013-03-03 03:45:00,38.7,33.1,29.88,NW,309,0.0,2.0,80,0.00,,BKN040,0.00,VWS V14.01,2013-03-03 08:45:00,
2013-03-03 03:52:00,38.6,33.0,29.88,NW,309,0.0,2.0,80,0.00,,BKN040,0.00,VWS V14.01,2013-03-03 08:52:00,
2013-03-03 04:00:00,38.4,32.5,29.88,NW,309,1.0,2.0,79,0.00,,BKN040,0.00,VWS V14.01,2013-03-03 09:00:00,
2013-03-03 04:07:00,38.3,32.4,29.89,NW,307,5.0,5.0,79,0.00,,CLR,0.00,VWS V14.01,2013-03-03 09:07:00,
2013-03-03 04:15:00,38.0,31.4,29.89,NW,317,0.0,5.0,77,0.00,,CLR,0.00,VWS V14.01,2013-03-03 09:15:00,
2013-03-03 04:22:00,38.0,31.1,29.89,North,11,0.0,2.0,76,0.00,,CLR,0.00,VWS V14.01,2013-03-03 09:22:00,
2013-03-03 04:27:00,38.0,31.1,29.90,North,355,0.0,4.0,76,0.00,,CLR,0.00,VWS V14.01,2013-03-03 09:27:00,
2013-03-03 04:30:00,36.1,27.6,29.90,NW,321,0.0,3.0,71,0.00,,SCT070,0.00,VWS V14.01,2013-03-03 09:30:00,
2013-03-03 04:32:00,37.9,30.7,29.90,North,355,0.0,2.0,75,0.00,,BKN026,0.00,VWS V14.01,2013-03-03 09:32:00,
2013-03-03 04:42:00,37.6,30.1,29.90,NNW,341,0.0,2.0,74,0.00,,BKN026,0.00,VWS V14.01,2013-03-03 09:42:00,
2013-03-03 04:45:00,35.8,27.3,29.91,NW,321,0.0,1.0,71,0.00,,SCT070,0.00,VWS V14.01,2013-03-03 09:45:00,
2013-03-03 04:47:00,37.4,29.5,29.90,NNW,341,0.0,0.0,73,0.00,,BKN026,0.00,VWS V14.01,2013-03-03 09:47:00,
2013-03-03 04:57:00,37.1,28.9,29.90,NNW,341,2.0,4.0,72,0.00,,BKN026,0.00,VWS V14.01,2013-03-03 09:57:00,
2013-03-03 05:00:00,35.7,26.9,29.92,NNW,334,0.0,2.0,70,0.00,,SCT070,0.00,VWS V14.01,2013-03-03 10:00:00,
2013-03-03 05:02:00,37.0,28.8,29.90,NNW,341,0.0,0.0,72,0.00,,BKN046,0.00,VWS V14.01,2013-03-03 10:02:00,
2013-03-03 05:11:00,36.6,28.1,29.90,NNW,342,1.0,1.0,71,0.00,,BKN046,0.00,VWS V14.01,2013-03-03 10:11:00,
2013-03-03 05:15:00,35.8,27.0,29.92,NNW,334,0.0,1.0,70,0.00,,SCT070,0.00,VWS V14.01,2013-03-03 10:15:00,
2013-03-03 05:16:00,36.4,27.9,29.90,NW,321,0.0,3.0,71,0.00,,BKN046,0.00,VWS V14.01,2013-03-03 10:16:00,
2013-03-03 05:26:00,36.2,27.7,29.91,NW,321,0.0,3.0,71,0.00,,BKN046,0.00,VWS V14.01,2013-03-03 10:26:00,
2013-03-03 05:30:00,35.7,26.5,29.92,NNW,327,0.0,4.0,69,0.00,,SCT070,0.00,VWS V14.01,2013-03-03 10:30:00,
2013-03-03 05:36:00,36.0,27.5,29.91,NW,321,0.0,1.0,71,0.00,,SCT046,0.00,VWS V14.01,2013-03-03 10:36:00,
2013-03-03 05:41:00,35.9,27.4,29.91,NW,321,0.0,1.0,71,0.00,,SCT046,0.00,VWS V14.01,2013-03-03 10:41:00,
2013-03-03 05:45:00,35.4,26.6,29.93,NW,325,0.0,2.0,70,0.00,,SCT070,0.00,VWS V14.01,2013-03-03 10:45:00,
2013-03-03 05:56:00,35.7,26.9,29.92,NNW,334,0.0,2.0,70,0.00,,SCT046,0.00,VWS V14.01,2013-03-03 10:56:00,
2013-03-03 06:00:00,35.5,26.7,29.93,NNW,331,0.0,2.0,70,0.00,,SCT070,0.00,VWS V14.01,2013-03-03 11:00:00,
2013-03-03 06:01:00,35.7,27.2,29.92,NNW,334,0.0,0.0,71,0.00,,SCT047,0.00,VWS V14.01,2013-03-03 11:01:00,
2013-03-03 06:06:00,35.7,26.9,29.92,NNW,335,0.0,1.0,70,0.00,,SCT047,0.00,VWS V14.01,2013-03-03 11:06:00,
2013-03-03 06:15:00,35.8,27.0,29.92,NNW,334,0.0,1.0,70,0.00,,SCT047,0.00,VWS V14.01,2013-03-03 11:15:00,
2013-03-03 06:21:00,35.8,27.3,29.92,NW,322,0.0,2.0,71,0.00,,SCT047,0.00,VWS V14.01,2013-03-03 11:21:00,
2013-03-03 06:30:00,35.7,26.5,29.92,NNW,327,0.0,4.0,69,0.00,,SCT047,0.00,VWS V14.01,2013-03-03 11:30:00,
2013-03-03 06:36:00,35.6,26.5,29.92,NNW,327,0.0,1.0,69,0.00,,SCT047,0.00,VWS V14.01,2013-03-03 11:36:00,
2013-03-03 06:45:00,35.4,26.6,29.93,NW,325,0.0,2.0,70,0.00,,SCT047,0.00,VWS V14.01,2013-03-03 11:45:00,
2013-03-03 06:51:00,35.4,26.6,29.93,NNW,331,0.0,2.0,70,0.00,,SCT047,0.00,VWS V14.01,2013-03-03 11:51:00,
2013-03-03 07:00:00,35.5,26.7,29.93,NNW,331,0.0,2.0,70,0.00,,SCT047,0.00,VWS V14.01,2013-03-03 12:00:00,
2013-03-03 07:06:00,35.6,26.8,29.93,NNW,331,0.0,1.0,70,0.00,,BKN049,0.00,VWS V14.01,2013-03-03 12:06:00,
2013-03-03 07:11:00,35.6,26.8,29.93,NNW,331,0.0,4.0,70,0.00,,BKN049,0.00,VWS V14.01,2013-03-03 12:11:00,
2013-03-03 07:15:00,36.2,27.0,29.94,North,355,0.0,3.0,69,0.00,,SCT070,0.00,VWS V14.01,2013-03-03 12:15:00,
2013-03-03 07:16:00,35.7,26.9,29.93,NNW,331,0.0,0.0,70,0.00,,BKN049,0.00,VWS V14.01,2013-03-03 12:16:00,
2013-03-03 07:26:00,35.7,26.9,29.93,NNE,27,1.0,3.0,70,0.00,,BKN049,0.00,VWS V14.01,2013-03-03 12:26:00,
2013-03-03 07:30:00,36.5,26.6,29.94,NNW,333,0.0,4.0,67,0.00,,SCT070,0.00,VWS V14.01,2013-03-03 12:30:00,
2013-03-03 07:31:00,35.7,26.9,29.93,NNE,27,0.0,1.0,70,0.00,,BKN049,0.00,VWS V14.01,2013-03-03 12:31:00,
2013-03-03 07:41:00,35.7,26.9,29.93,NNE,26,0.0,1.0,70,0.00,,BKN049,0.00,VWS V14.01,2013-03-03 12:41:00,
2013-03-03 07:45:00,37.1,26.8,29.95,NW,324,0.0,4.0,66,0.00,,SCT070,0.00,VWS V14.01,2013-03-03 12:45:00,
2013-03-03 07:46:00,35.6,26.5,29.94,NNW,344,0.0,1.0,69,0.00,,BKN049,0.00,VWS V14.01,2013-03-03 12:46:00,
2013-03-03 07:56:00,35.5,26.7,29.94,NNW,345,0.0,2.0,70,0.00,,BKN049,0.00,VWS V14.01,2013-03-03 12:56:00,
2013-03-03 08:00:00,37.7,26.6,29.95,NE,44,0.0,6.0,64,0.00,,SCT070,0.00,VWS V14.01,2013-03-03 13:00:00,
2013-03-03 08:01:00,35.6,26.8,29.94,NNW,345,0.0,0.0,70,0.00,,BKN049,0.00,VWS V14.01,2013-03-03 13:01:00,
2013-03-03 08:11:00,36.1,26.9,29.94,NW,317,0.0,3.0,69,0.00,,BKN050,0.00,VWS V14.01,2013-03-03 13:11:00,
2013-03-03 08:15:00,38.6,27.1,29.95,NNW,348,0.0,3.0,63,0.00,,SCT070,0.00,VWS V14.01,2013-03-03 13:15:00,
2013-03-03 08:16:00,36.2,26.7,29.94,North,355,0.0,0.0,68,0.00,,BKN050,0.00,VWS V14.01,2013-03-03 13:16:00,
2013-03-03 08:26:00,36.4,26.9,29.94,NW,319,0.0,4.0,68,0.00,,BKN050,0.00,VWS V14.01,2013-03-03 13:26:00,
2013-03-03 08:30:00,39.9,27.2,29.95,NNE,28,0.0,6.0,60,0.00,,SCT070,0.00,VWS V14.01,2013-03-03 13:30:00,
2013-03-03 08:36:00,36.7,26.8,29.94,NW,322,0.0,3.0,67,0.00,,BKN050,0.00,VWS V14.01,2013-03-03 13:36:00,
2013-03-03 08:41:00,36.9,26.6,29.95,NW,321,0.0,4.0,66,0.00,,BKN050,0.00,VWS V14.01,2013-03-03 13:41:00,
2013-03-03 08:45:00,41.1,27.0,29.95,NW,321,0.0,5.0,57,0.00,,SCT070,0.00,VWS V14.01,2013-03-03 13:45:00,
2013-03-03 08:51:00,37.3,26.3,29.95,NNW,336,0.0,5.0,64,0.00,,BKN050,0.00,VWS V14.01,2013-03-03 13:51:00,
2013-03-03 09:00:00,37.7,26.6,29.95,NE,44,0.0,6.0,64,0.00,,BKN050,0.00,VWS V14.01,2013-03-03 14:00:00,
2013-03-03 09:06:00,38.0,26.5,29.95,NW,319,0.0,3.0,63,0.00,,OVC050,0.00,VWS V14.01,2013-03-03 14:06:00,
2013-03-03 09:15:00,38.6,27.1,29.95,NNW,348,0.0,3.0,63,0.00,,OVC050,0.00,VWS V14.01,2013-03-03 14:15:00,
2013-03-03 09:20:00,39.1,26.8,29.95,NNE,18,0.0,6.0,61,0.00,,OVC050,0.00,VWS V14.01,2013-03-03 14:20:00,
2013-03-03 09:30:00,39.9,27.2,29.95,NNE,28,0.0,6.0,60,0.00,,OVC050,0.00,VWS V14.01,2013-03-03 14:30:00,
2013-03-03 09:35:00,40.4,27.2,29.95,North,360,1.0,4.0,59,0.00,,OVC050,0.00,VWS V14.01,2013-03-03 14:35:00,
2013-03-03 09:45:00,41.1,27.0,29.95,NW,321,0.0,5.0,57,0.00,,OVC050,0.00,VWS V14.01,2013-03-03 14:45:00,
2013-03-03 09:50:00,41.0,27.8,29.95,NW,309,0.0,4.0,59,0.00,,OVC050,0.00,VWS V14.01,2013-03-03 14:50:00,
2013-03-03 09:55:00,40.9,27.3,29.95,NW,325,2.0,5.0,58,0.00,,OVC050,0.00,VWS V14.01,2013-03-03 14:55:00,
2013-03-03 10:00:00,40.7,27.1,29.95,NW,317,0.0,1.0,58,0.00,,OVC050,0.00,VWS V14.01,2013-03-03 15:00:00,
2013-03-03 10:10:00,40.6,27.4,29.95,NE,40,5.0,5.0,59,0.00,,OVC055,0.00,VWS V14.01,2013-03-03 15:10:00,
2013-03-03 10:15:00,40.2,26.6,29.95,North,350,0.0,1.0,58,0.00,,OVC055,0.00,VWS V14.01,2013-03-03 15:15:00,
2013-03-03 10:25:00,40.5,27.3,29.95,NNW,327,0.0,4.0,59,0.00,,OVC055,0.00,VWS V14.01,2013-03-03 15:25:00,
2013-03-03 10:30:00,40.8,27.2,29.95,NNW,330,2.0,4.0,58,0.00,,OVC055,0.00,VWS V14.01,2013-03-03 15:30:00,
2013-03-03 10:35:00,40.9,27.3,29.95,North,10,0.0,4.0,58,0.00,,OVC055,0.00,VWS V14.01,2013-03-03 15:35:00,
2013-03-03 10:45:00,41.1,27.5,29.95,NW,316,0.0,5.0,58,0.00,,OVC055,0.00,VWS V14.01,2013-03-03 15:45:00,
2013-03-03 10:50:00,41.2,27.6,29.95,WSW,247,2.0,6.0,58,0.00,,OVC055,0.00,VWS V14.01,2013-03-03 15:50:00,
2013-03-03 10:55:00,41.5,27.4,29.95,North,5,0.0,6.0,57,0.00,,OVC055,0.00,VWS V14.01,2013-03-03 15:55:00,
2013-03-03 11:00:00,41.9,28.2,29.95,North,5,0.0,0.0,58,0.00,,OVC055,0.00,VWS V14.01,2013-03-03 16:00:00,
2013-03-03 11:10:00,42.3,27.7,29.95,NNE,26,0.0,4.0,56,0.00,,OVC055,0.00,VWS V14.01,2013-03-03 16:10:00,
2013-03-03 11:15:00,42.3,27.3,29.95,NNW,338,2.0,4.0,55,0.00,,OVC055,0.00,VWS V14.01,2013-03-03 16:15:00,
2013-03-03 11:25:00,42.5,27.5,29.94,WNW,298,1.0,6.0,55,0.00,,OVC055,0.00,VWS V14.01,2013-03-03 16:25:00,
2013-03-03 11:30:00,42.7,26.8,29.94,NW,313,5.0,5.0,53,0.00,,OVC055,0.00,VWS V14.01,2013-03-03 16:30:00,
2013-03-03 11:35:00,42.4,27.0,29.94,NNE,21,1.0,5.0,54,0.00,,OVC055,0.00,VWS V14.01,2013-03-03 16:35:00,
2013-03-03 11:45:00,42.4,26.5,29.94,North,5,0.0,5.0,53,0.00,,OVC055,0.00,VWS V14.01,2013-03-03 16:45:00,
2013-03-03 11:50:00,42.4,27.0,29.94,NNW,334,0.0,4.0,54,0.00,,OVC055,0.00,VWS V14.01,2013-03-03 16:50:00,
2013-03-03 12:00:00,42.8,26.4,29.94,NW,319,0.0,6.0,52,0.00,,OVC055,0.00,VWS V14.01,2013-03-03 17:00:00,
2013-03-03 12:05:00,43.0,27.0,29.93,NNW,334,0.0,2.0,53,0.00,,OVC055,0.00,VWS V14.01,2013-03-03 17:05:00,
2013-03-03 12:15:00,43.9,27.9,29.93,WNW,298,0.0,5.0,53,0.00,,OVC055,0.00,VWS V14.01,2013-03-03 17:15:00,
2013-03-03 12:20:00,44.3,27.3,29.93,NW,307,2.0,5.0,51,0.00,,OVC055,0.00,VWS V14.01,2013-03-03 17:20:00,
2013-03-03 12:30:00,44.5,27.0,29.92,NW,304,1.0,6.0,50,0.00,,OVC055,0.00,VWS V14.01,2013-03-03 17:30:00,
2013-03-03 12:35:00,44.2,27.2,29.92,NNW,331,1.0,8.0,51,0.00,,OVC055,0.00,VWS V14.01,2013-03-03 17:35:00,
2013-03-03 12:45:00,44.5,27.5,29.92,NNW,327,1.0,8.0,51,0.00,,OVC055,0.00,VWS V14.01,2013-03-03 17:45:00,
2013-03-03 12:50:00,45.0,28.0,29.92,SW,219,3.0,6.0,51,0.00,,OVC055,0.00,VWS V14.01,2013-03-03 17:50:00,
2013-03-03 12:55:00,45.4,27.9,29.92,NNW,331,3.0,8.0,50,0.00,,OVC055,0.00,VWS V14.01,2013-03-03 17:55:00,
2013-03-03 13:00:00,45.7,28.1,29.91,West,261,1.0,8.0,50,0.00,,OVC055,0.00,VWS V14.01,2013-03-03 18:00:00,
2013-03-03 13:10:00,46.6,28.5,29.91,NNW,338,2.0,4.0,49,0.00,,OVC055,0.00,VWS V14.01,2013-03-03 18:10:00,
2013-03-03 13:15:00,47.3,29.6,29.91,NNW,329,1.0,5.0,50,0.00,,OVC055,0.00,VWS V14.01,2013-03-03 18:15:00,
2013-03-03 13:20:00,47.1,27.9,29.91,WNW,292,4.0,9.0,47,0.00,,OVC055,0.00,VWS V14.01,2013-03-03 18:20:00,
2013-03-03 13:29:00,46.3,28.7,29.90,NW,323,2.0,9.0,50,0.00,,OVC055,0.00,VWS V14.01,2013-03-03 18:29:00,
2013-03-03 13:30:00,46.0,28.4,29.88,NW,322,0.0,7.0,50,0.00,,SCT070,0.00,VWS V14.01,2013-03-03 18:30:00,
2013-03-03 13:34:00,46.1,28.5,29.90,NW,315,2.0,6.0,50,0.00,,OVC055,0.00,VWS V14.01,2013-03-03 18:34:00,
2013-03-03 13:44:00,45.7,27.6,29.90,NNW,327,2.0,6.0,49,0.00,,OVC055,0.00,VWS V14.01,2013-03-03 18:44:00,
2013-03-03 13:45:00,47.4,29.2,29.88,NW,306,4.0,10.0,49,0.00,,SCT070,0.00,VWS V14.01,2013-03-03 18:45:00,
2013-03-03 13:49:00,45.5,28.4,29.90,NW,322,4.0,5.0,51,0.00,,OVC055,0.00,VWS V14.01,2013-03-03 18:49:00,
2013-03-03 13:59:00,45.2,28.2,29.89,North,360,0.0,8.0,51,0.00,,OVC055,0.00,VWS V14.01,2013-03-03 18:59:00,
2013-03-03 14:00:00,47.3,28.6,29.88,NNW,335,2.0,6.0,48,0.00,,SCT070,0.00,VWS V14.01,2013-03-03 19:00:00,
2013-03-03 14:04:00,45.3,29.2,29.89,NW,320,2.0,5.0,53,0.00,,OVC050,0.00,VWS V14.01,2013-03-03 19:04:00,
2013-03-03 14:14:00,45.9,28.3,29.89,NW,320,2.0,7.0,50,0.00,,OVC050,0.00,VWS V14.01,2013-03-03 19:14:00,
2013-03-03 14:15:00,47.2,28.5,29.88,NW,319,2.0,6.0,48,0.00,,SCT070,0.00,VWS V14.01,2013-03-03 19:15:00,
2013-03-03 14:19:00,46.0,27.9,29.89,NNW,344,1.0,7.0,49,0.00,,OVC050,0.00,VWS V14.01,2013-03-03 19:19:00,
2013-03-03 14:29:00,46.0,28.4,29.88,NNW,338,7.0,7.0,50,0.00,,OVC050,0.00,VWS V14.01,2013-03-03 19:29:00,
2013-03-03 14:30:00,46.7,28.6,29.88,NW,325,2.0,8.0,49,0.00,,SCT070,0.00,VWS V14.01,2013-03-03 19:30:00,
2013-03-03 14:34:00,46.5,28.9,29.89,NNW,329,6.0,6.0,50,0.00,,OVC050,0.00,VWS V14.01,2013-03-03 19:34:00,
2013-03-03 14:44:00,47.3,29.1,29.88,NW,306,0.0,10.0,49,0.00,,OVC050,0.00,VWS V14.01,2013-03-03 19:44:00,
2013-03-03 14:45:00,45.5,28.0,29.89,NW,317,0.0,6.0,50,0.00,,SCT070,0.00,VWS V14.01,2013-03-03 19:45:00,
2013-03-03 14:49:00,47.6,28.9,29.88,WNW,288,0.0,5.0,48,0.00,,OVC050,0.00,VWS V14.01,2013-03-03 19:49:00,
2013-03-03 14:54:00,47.7,28.5,29.88,NNW,331,4.0,6.0,47,0.00,,OVC050,0.00,VWS V14.01,2013-03-03 19:54:00,
2013-03-03 15:00:00,47.3,28.6,29.88,NNW,335,2.0,6.0,48,0.00,,OVC050,0.00,VWS V14.01,2013-03-03 20:00:00,
2013-03-03 15:09:00,47.0,28.3,29.88,NNW,327,1.0,6.0,48,0.00,,OVC050,0.00,VWS V14.01,2013-03-03 20:09:00,
2013-03-03 15:15:00,47.2,28.5,29.88,NW,319,2.0,6.0,48,0.00,,OVC050,0.00,VWS V14.01,2013-03-03 20:15:00,
2013-03-03 15:24:00,47.5,27.8,29.88,NW,311,5.0,7.0,46,0.00,,OVC050,0.00,VWS V14.01,2013-03-03 20:24:00,
2013-03-03 15:29:00,46.8,28.2,29.88,NNW,337,0.0,8.0,48,0.00,,OVC050,0.00,VWS V14.01,2013-03-03 20:29:00,
2013-03-03 15:30:00,44.7,29.1,29.89,WNW,299,0.0,5.0,54,0.00,,SCT070,0.00,VWS V14.01,2013-03-03 20:30:00,
2013-03-03 15:34:00,46.2,27.6,29.88,SE,132,0.0,5.0,48,0.00,,OVC050,0.00,VWS V14.01,2013-03-03 20:34:00,
2013-03-03 15:39:00,45.9,28.8,29.88,West,275,1.0,5.0,51,0.00,,OVC050,0.00,VWS V14.01,2013-03-03 20:39:00,
2013-03-03 15:45:00,45.5,28.0,29.89,NW,317,0.0,6.0,50,0.00,,OVC050,0.00,VWS V14.01,2013-03-03 20:45:00,
2013-03-03 15:54:00,45.3,28.2,29.89,West,260,0.0,6.0,51,0.00,,OVC050,0.00,VWS V14.01,2013-03-03 20:54:00,
2013-03-03 16:00:00,45.2,28.6,29.89,NNW,345,1.0,6.0,52,0.00,,OVC050,0.00,VWS V14.01,2013-03-03 21:00:00,
2013-03-03 16:09:00,45.2,29.1,29.89,NW,312,6.0,6.0,53,0.00,,OVC048,0.00,VWS V14.01,2013-03-03 21:09:00,
2013-03-03 16:15:00,44.9,28.4,29.89,SE,130,2.0,8.0,52,0.00,,OVC048,0.00,VWS V14.01,2013-03-03 21:15:00,
2013-03-03 16:24:00,44.7,28.6,29.89,NW,317,0.0,5.0,53,0.00,,OVC048,0.00,VWS V14.01,2013-03-03 21:24:00,
2013-03-03 16:30:00,44.7,29.1,29.89,WNW,299,0.0,5.0,54,0.00,,OVC048,0.00,VWS V14.01,2013-03-03 21:30:00,
2013-03-03 16:39:00,44.6,29.0,29.89,NNW,327,2.0,5.0,54,0.00,,OVC048,0.00,VWS V14.01,2013-03-03 21:39:00,
2013-03-03 16:45:00,44.6,29.0,29.89,NW,304,2.0,5.0,54,0.00,,OVC048,0.00,VWS V14.01,2013-03-03 21:45:00,
2013-03-03 16:54:00,44.5,28.5,29.89,NW,311,0.0,6.0,53,0.00,,OVC048,0.00,VWS V14.01,2013-03-03 21:54:00,
2013-03-03 17:00:00,44.4,28.4,29.89,SE,128,4.0,6.0,53,0.00,,OVC048,0.00,VWS V14.01,2013-03-03 22:00:00,
2013-03-03 17:09:00,44.5,28.0,29.89,WSW,255,0.0,4.0,52,0.00,,SCT055,0.00,VWS V14.01,2013-03-03 22:09:00,
2013-03-03 17:15:00,44.3,28.3,29.89,NW,311,0.0,7.0,53,0.00,,SCT055,0.00,VWS V14.01,2013-03-03 22:15:00,
2013-03-03 17:23:00,44.2,28.6,29.90,NW,311,0.0,4.0,54,0.00,,SCT055,0.00,VWS V14.01,2013-03-03 22:23:00,
2013-03-03 17:30:00,44.0,28.4,29.90,NNW,331,0.0,4.0,54,0.00,,SCT055,0.00,VWS V14.01,2013-03-03 22:30:00,
2013-03-03 17:38:00,43.8,28.7,29.90,NNW,339,0.0,1.0,55,0.00,,SCT055,0.00,VWS V14.01,2013-03-03 22:38:00,
2013-03-03 17:45:00,43.6,29.0,29.90,NNW,338,0.0,1.0,56,0.00,,SCT055,0.00,VWS V14.01,2013-03-03 22:45:00,
2013-03-03 17:53:00,43.3,29.1,29.90,NNW,338,0.0,0.0,57,0.00,,SCT055,0.00,VWS V14.01,2013-03-03 22:53:00,
2013-03-03 17:58:00,43.0,29.2,29.90,NNW,339,0.0,0.0,58,0.00,,SCT055,0.00,VWS V14.01,2013-03-03 22:58:00,
2013-03-03 18:00:00,38.9,29.6,29.92,NNW,339,0.0,0.0,69,0.00,,SCT070,0.00,VWS V14.01,2013-03-03 23:00:00,
2013-03-03 18:08:00,42.4,30.3,29.90,NNW,339,0.0,0.0,62,0.00,,CLR,0.00,VWS V14.01,2013-03-03 23:08:00,
2013-03-03 18:13:00,42.1,30.0,29.91,NNW,338,0.0,0.0,62,0.00,,CLR,0.00,VWS V14.01,2013-03-03 23:13:00,
2013-03-03 18:15:00,37.9,30.0,29.93,NNW,339,0.0,0.0,73,0.00,,SCT070,0.00,VWS V14.01,2013-03-03 23:15:00,
2013-03-03 18:23:00,41.3,30.4,29.91,NNW,338,0.0,0.0,65,0.00,,CLR,0.00,VWS V14.01,2013-03-03 23:23:00,
2013-03-03 18:28:00,41.0,30.1,29.91,NNW,338,0.0,0.0,65,0.00,,CLR,0.00,VWS V14.01,2013-03-03 23:28:00,
2013-03-03 18:30:00,36.9,29.4,29.93,NNW,338,0.0,0.0,74,0.00,,SCT070,0.00,VWS V14.01,2013-03-03 23:30:00,
2013-03-03 18:38:00,40.2,29.8,29.91,NNW,339,0.0,0.0,66,0.00,,CLR,0.00,VWS V14.01,2013-03-03 23:38:00,
2013-03-03 18:43:00,39.9,30.2,29.91,NNW,339,0.0,0.0,68,0.00,,CLR,0.00,VWS V14.01,2013-03-03 23:43:00,
2013-03-03 18:45:00,36.1,29.3,29.94,NNW,338,0.0,0.0,76,0.00,,SCT070,0.00,VWS V14.01,2013-03-03 23:45:00,
2013-03-03 18:53:00,39.2,29.9,29.92,NNW,338,0.0,0.0,69,0.00,,CLR,0.00,VWS V14.01,2013-03-03 23:53:00,
2013-03-03 18:58:00,38.9,29.6,29.92,NNW,339,0.0,0.0,69,0.00,,CLR,0.00,VWS V14.01,2013-03-03 23:58:00,
2013-03-03 19:00:00,35.4,29.2,29.94,NNW,338,0.0,0.0,78,0.00,,SCT070,0.00,VWS V14.01,2013-03-04 00:00:00,
2013-03-03 19:08:00,38.4,29.8,29.92,NNW,338,0.0,0.0,71,0.00,,CLR,0.00,VWS V14.01,2013-03-04 00:08:00,
2013-03-03 19:13:00,38.0,29.8,29.93,NNW,338,0.0,0.0,72,0.00,,CLR,0.00,VWS V14.01,2013-03-04 00:13:00,
2013-03-03 19:15:00,34.7,28.6,29.94,NNW,339,0.0,0.0,78,0.00,,SCT070,0.00,VWS V14.01,2013-03-04 00:15:00,
2013-03-03 19:23:00,37.3,29.1,29.93,NNW,339,0.0,0.0,72,0.00,,CLR,0.00,VWS V14.01,2013-03-04 00:23:00,
2013-03-03 19:28:00,37.0,29.2,29.93,NNW,339,0.0,0.0,73,0.00,,CLR,0.00,VWS V14.01,2013-03-04 00:28:00,
2013-03-03 19:30:00,34.4,29.2,29.94,NNW,339,0.0,0.0,81,0.00,,SCT070,0.00,VWS V14.01,2013-03-04 00:30:00,
2013-03-03 19:38:00,36.5,29.3,29.93,NNW,338,0.0,0.0,75,0.00,,CLR,0.00,VWS V14.01,2013-03-04 00:38:00,
2013-03-03 19:43:00,36.3,29.5,29.94,NNW,338,0.0,0.0,76,0.00,,CLR,0.00,VWS V14.01,2013-03-04 00:43:00,
2013-03-03 19:45:00,34.4,28.6,29.95,NNW,339,0.0,0.0,79,0.00,,SCT070,0.00,VWS V14.01,2013-03-04 00:45:00,
2013-03-03 19:53:00,35.8,29.3,29.94,NNW,339,0.0,0.0,77,0.00,,CLR,0.00,VWS V14.01,2013-03-04 00:53:00,
2013-03-03 19:58:00,35.5,29.3,29.94,NNW,339,0.0,0.0,78,0.00,,CLR,0.00,VWS V14.01,2013-03-04 00:58:00,
2013-03-03 20:00:00,34.1,28.6,29.95,NNW,338,0.0,0.0,80,0.00,,SCT070,0.00,VWS V14.01,2013-03-04 01:00:00,
2013-03-03 20:03:00,35.3,29.1,29.94,NNW,339,0.0,0.0,78,0.00,,CLR,0.00,VWS V14.01,2013-03-04 01:03:00,
2013-03-03 20:13:00,34.8,29.0,29.94,NNW,338,0.0,0.0,79,0.00,,CLR,0.00,VWS V14.01,2013-03-04 01:13:00,
2013-03-03 20:15:00,33.9,28.7,29.95,NNW,338,0.0,0.0,81,0.00,,SCT070,0.00,VWS V14.01,2013-03-04 01:15:00,
2013-03-03 20:18:00,34.6,28.8,29.94,NNW,338,0.0,0.0,79,0.00,,CLR,0.00,VWS V14.01,2013-03-04 01:18:00,
2013-03-03 20:28:00,34.4,28.9,29.94,NNW,339,0.0,0.0,80,0.00,,CLR,0.00,VWS V14.01,2013-03-04 01:28:00,
2013-03-03 20:30:00,33.6,28.4,29.95,NNW,339,0.0,0.0,81,0.00,,SCT070,0.00,VWS V14.01,2013-03-04 01:30:00,
2013-03-03 20:33:00,34.4,29.2,29.95,NNW,339,0.0,0.0,81,0.00,,CLR,0.00,VWS V14.01,2013-03-04 01:33:00,
2013-03-03 20:43:00,34.4,28.9,29.95,NNW,338,0.0,0.0,80,0.00,,CLR,0.00,VWS V14.01,2013-03-04 01:43:00,
2013-03-03 20:45:00,33.6,28.4,29.95,NNW,339,0.0,0.0,81,0.00,,SCT070,0.00,VWS V14.01,2013-03-04 01:45:00,
2013-03-03 20:48:00,34.3,28.5,29.95,NNW,339,0.0,0.0,79,0.00,,CLR,0.00,VWS V14.01,2013-03-04 01:48:00,
2013-03-03 20:53:00,34.2,28.4,29.95,NNW,339,0.0,0.0,79,0.00,,CLR,0.00,VWS V14.01,2013-03-04 01:53:00,
2013-03-03 20:58:00,34.1,28.6,29.95,NNW,338,0.0,0.0,80,0.00,,CLR,0.00,VWS V14.01,2013-03-04 01:58:00,
2013-03-03 21:00:00,33.7,28.8,29.96,NNW,339,0.0,0.0,82,0.00,,SCT070,0.00,VWS V14.01,2013-03-04 02:00:00,
2013-03-03 21:03:00,34.1,28.6,29.95,NNW,338,0.0,0.0,80,0.00,,CLR,0.00,VWS V14.01,2013-03-04 02:03:00,
2013-03-03 21:08:00,34.0,28.8,29.95,NNW,339,0.0,0.0,81,0.00,,CLR,0.00,VWS V14.01,2013-03-04 02:08:00,
2013-03-03 21:15:00,33.9,28.7,29.95,NNW,338,0.0,0.0,81,0.00,,CLR,0.00,VWS V14.01,2013-03-04 02:15:00,
2013-03-03 21:23:00,33.7,28.5,29.95,NNW,338,0.0,0.0,81,0.00,,CLR,0.00,VWS V14.01,2013-03-04 02:23:00,
2013-03-03 21:30:00,33.6,28.4,29.95,NNW,339,0.0,0.0,81,0.00,,CLR,0.00,VWS V14.01,2013-03-04 02:30:00,
2013-03-03 21:38:00,33.5,28.3,29.95,NNW,339,0.0,0.0,81,0.00,,CLR,0.00,VWS V14.01,2013-03-04 02:38:00,
2013-03-03 21:43:00,33.5,28.3,29.95,NNW,339,0.0,0.0,81,0.00,,CLR,0.00,VWS V14.01,2013-03-04 02:43:00,
2013-03-03 21:45:00,34.4,28.6,29.97,West,272,0.0,0.0,79,0.00,,SCT070,0.00,VWS V14.01,2013-03-04 02:45:00,
2013-03-03 21:52:00,33.7,28.5,29.96,NNW,339,0.0,0.0,81,0.00,,CLR,0.00,VWS V14.01,2013-03-04 02:52:00,
2013-03-03 21:57:00,33.7,28.8,29.96,NNW,339,0.0,0.0,82,0.00,,CLR,0.00,VWS V14.01,2013-03-04 02:57:00,
2013-03-03 22:00:00,34.3,28.8,29.97,West,272,0.0,0.0,80,0.00,,SCT070,0.00,VWS V14.01,2013-03-04 03:00:00,
2013-03-03 22:02:00,33.7,28.8,29.96,NNW,339,0.0,0.0,82,0.00,,CLR,0.00,VWS V14.01,2013-03-04 03:02:00,
2013-03-03 22:12:00,33.9,28.7,29.96,NNW,338,0.0,1.0,81,0.00,,CLR,0.00,VWS V14.01,2013-03-04 03:12:00,
2013-03-03 22:15:00,34.0,28.5,29.97,West,272,0.0,0.0,80,0.00,,SCT070,0.00,VWS V14.01,2013-03-04 03:15:00,
2013-03-03 22:17:00,34.2,29.0,29.96,NNW,339,0.0,0.0,81,0.00,,CLR,0.00,VWS V14.01,2013-03-04 03:17:00,
2013-03-03 22:27:00,34.4,28.9,29.97,West,272,0.0,1.0,80,0.00,,CLR,0.00,VWS V14.01,2013-03-04 03:27:00,
2013-03-03 22:30:00,33.8,28.6,29.97,West,271,0.0,1.0,81,0.00,,SCT070,0.00,VWS V14.01,2013-03-04 03:30:00,
2013-03-03 22:32:00,34.4,28.9,29.97,West,272,0.0,0.0,80,0.00,,CLR,0.00,VWS V14.01,2013-03-04 03:32:00,
2013-03-03 22:42:00,34.4,28.9,29.97,West,272,0.0,0.0,80,0.00,,CLR,0.00,VWS V14.01,2013-03-04 03:42:00,
2013-03-03 22:45:00,33.8,28.3,29.98,South,171,0.0,2.0,80,0.00,,SCT070,0.00,VWS V14.01,2013-03-04 03:45:00,
2013-03-03 22:47:00,34.4,28.6,29.97,West,272,0.0,0.0,79,0.00,,CLR,0.00,VWS V14.01,2013-03-04 03:47:00,
2013-03-03 22:57:00,34.4,28.9,29.97,West,272,0.0,0.0,80,0.00,,CLR,0.00,VWS V14.01,2013-03-04 03:57:00,
2013-03-03 23:00:00,33.7,28.2,29.98,South,171,0.0,0.0,80,0.00,,SCT070,0.00,VWS V14.01,2013-03-04 04:00:00,
2013-03-03 23:02:00,34.2,28.7,29.97,West,272,0.0,0.0,80,0.00,,CLR,0.00,VWS V14.01,2013-03-04 04:02:00,
2013-03-03 23:12:00,34.0,28.5,29.97,West,272,0.0,0.0,80,0.00,,CLR,0.00,VWS V14.01,2013-03-04 04:12:00,
2013-03-03 23:15:00,33.9,27.8,29.98,South,171,0.0,1.0,78,0.00,,SCT070,0.00,VWS V14.01,2013-03-04 04:15:00,
2013-03-03 23:17:00,33.9,28.4,29.97,West,272,0.0,0.0,80,0.00,,CLR,0.00,VWS V14.01,2013-03-04 04:17:00,
2013-03-03 23:27:00,33.8,28.6,29.97,West,271,0.0,1.0,81,0.00,,CLR,0.00,VWS V14.01,2013-03-04 04:27:00,
2013-03-03 23:30:00,34.2,27.4,29.99,South,171,0.0,1.0,76,0.00,,SCT070,0.00,VWS V14.01,2013-03-04 04:30:00,
2013-03-03 23:32:00,33.7,28.5,29.97,West,271,0.0,0.0,81,0.00,,CLR,0.00,VWS V14.01,2013-03-04 04:32:00,
2013-03-03 23:42:00,33.8,28.3,29.98,South,171,0.0,2.0,80,0.00,,CLR,0.00,VWS V14.01,2013-03-04 04:42:00,
2013-03-03 23:45:00,34.2,27.1,30.00,South,171,0.0,0.0,75,0.00,,SCT070,0.00,VWS V14.01,2013-03-04 04:45:00,
2013-03-03 23:47:00,33.8,28.6,29.98,South,171,0.0,0.0,81,0.00,,CLR,0.00,VWS V14.01,2013-03-04 04:47:00,
2013-03-03 23:52:00,33.7,28.2,29.98,South,171,0.0,0.0,80,0.00,,CLR,0.00,VWS V14.01,2013-03-04 04:52:00,